Preview of NWS' New Version of Forecast
This preview is not operational and should not be used for support decisions.

Regional Weather Roundup (RWR)

Issued by Gray - Portland, ME (GYX)

                            
000
ASUS41 KGYX 241810
RWRGYX
WEATHER ROUNDUP FOR MAINE AND NEW HAMPSHIRE
NATIONAL WEATHER SERVICE GRAY ME
200 PM EDT WED APR 24 2019

MEZ002-005-006-010-012-015-018-020-021-024-026-027-029-241900-
MAINE
  
CITY           SKY/WX    TMP DP  RH WIND       PRES   REMARKS
PORTLAND       PTSUNNY   51  46  83 E6        29.69S                  
6HR MIN TEMP:  43; 6HR MAX TEMP:  51; 6HR PCP:  0.01;                

SANFORD        CLOUDY    59  43  55 NW9G20    29.67S                  
BAR HARBOR     LGT RAIN  40  39  97 E6        29.70F                  
WISCASSET      CLOUDY    49  43  80 E5        29.70S                  
6HR MIN TEMP:  41; 6HR MAX TEMP:  49;                                

ROCKLAND       CLOUDY    41  40  96 N8        29.70S FOG              
FRYEBURG       CLOUDY    49  43  80 CALM      29.68F                  
6HR MIN TEMP:  42; 6HR MAX TEMP:  49; 6HR PCP: TRACE;                

LEWISTONAUBURN   N/A     48  43  82 N7        29.69S                  
AUGUSTA        CLOUDY    46  42  86 NW5       29.70F                  
6HR MIN TEMP:  39; 6HR MAX TEMP:  47;                                

WATERVILLE     CLOUDY    45  42  89 N5        29.68S                  
BANGOR         CLOUDY    43  40  89 N6        29.72R                  
6HR MIN TEMP:  38; 6HR MAX TEMP:  43; 6HR PCP:  0.02;                

GREENVILLE       N/A     39  35  86 CALM      29.66R                  
6HR MIN TEMP:  32; 6HR MAX TEMP:  39;                                

MILLINOCKET    CLOUDY    40  36  86 NE5       29.72R FOG              
6HR MIN TEMP:  35; 6HR MAX TEMP:  41; 6HR PCP:  0.05;                

HOULTON        CLOUDY    41  37  86 NE15      29.66F                  
6HR MIN TEMP:  36; 6HR MAX TEMP:  41; 6HR PCP:  0.03;                

PRESQUE ISLE   LGT RAIN  39  37  92 NE12      29.74F                  
6HR MIN TEMP:  34; 6HR MAX TEMP:  40; 6HR PCP:  0.04;                

FRENCHVILLE    LGT RAIN  38  33  82 NE6       29.75S                  
6HR MIN TEMP:  35; 6HR MAX TEMP:  38; 6HR PCP:  0.04;                

CARIBOU        CLOUDY    40  36  86 NE8       29.74S                  
6HR MIN TEMP:  36; 6HR MAX TEMP:  40; 6HR PCP:  0.13;                

$$

NHZ002-005-008-009-011-012-014-241900-
NEW HAMPSHIRE
  
CITY           SKY/WX    TMP DP  RH WIND       PRES   REMARKS
PORTSMOUTH     PTSUNNY   61  39  44 W13       29.66R                  
ROCHESTER      PTSUNNY   60  43  53 NW13      29.66S                  
6HR MIN TEMP:  43; 6HR MAX TEMP:  61;                                

NASHUA         PTSUNNY   63  40  42 NW14G22   29.69R                  
MANCHESTER     PTSUNNY   62  37  39 NW9G21    29.67R                  
6HR MIN TEMP:  45; 6HR MAX TEMP:  63;                                

CONCORD        FAIR      61  39  44 NW14G23   29.68S                  
6HR MIN TEMP:  43; 6HR MAX TEMP:  61;                                

LACONIA        CLOUDY    56  40  55 W14G23    29.68S                  
PLYMOUTH       CLOUDY    53  38  58 W12       29.70R                  
BERLIN         LGT RAIN  46  39  76 VRB5      29.69R                  
6HR MIN TEMP:  41; 6HR MAX TEMP:  48; 6HR PCP:  0.02;                

WHITEFIELD     CLOUDY    47  38  71 W12       29.70R                  
6HR MIN TEMP:  44; 6HR MAX TEMP:  52; 6HR PCP: TRACE;                

JAFFREY        FAIR      55  37  50 W9G25     29.71S                  
6HR MIN TEMP:  47; 6HR MAX TEMP:  56;                                

KEENE          CLOUDY    54  38  54 W13G18    29.73S                  
LEBANON        CLOUDY    55  37  50 W14       29.71R                  
6HR MIN TEMP:  52; 6HR MAX TEMP:  55;                                

MT WASHINGTON  FOG       27  27 100 W36G45      N/A  VSB 0   WCI   9  
6HR MIN TEMP:  27; 6HR MAX TEMP:  33;                                

$$

VTZ005-007-008-241900-
VERMONT
  
CITY           SKY/WX    TMP DP  RH WIND       PRES   REMARKS
ST JOHNSBURY     N/A     47  39  74 MISG      29.70R                  
MONTPELIER     CLOUDY    47  37  68 CALM      29.76R                  
BURLINGTON     LGT RAIN  48  35  60 W10G21    29.76R                  
$$

MAZ007-012-024-CTZ003-RIZ002-NYZ038-NYZ072-241900-
SOUTHERN NEW ENGLAND AND NY
  
CITY           SKY/WX    TMP DP  RH WIND       PRES   REMARKS
BOSTON         FAIR      66  40  38 W13G24    29.68S                  
WORCESTER      FAIR      58  40  51 W22G28    29.72R                  
NANTUCKET      FAIR      65  52  62 SW12      29.68S                  
PROVIDENCE     FAIR      67  40  37 W15G24    29.69S                  
HARTFORD       FAIR      62  37  39 NW21G29   29.75S                  
ALBANY         PTSUNNY   52  37  56 NW16G22   29.84S                  
NEW YORK CITY  FAIR      64  37  36 NW16      29.76F                  
$$

ANZ081-ANZ082-ANZ150-NHZ014-MEZ023>029-241900-
COASTAL MARINE OBSERVATIONS
  
STATION/POSITION TIME  TEMP    WIND        PRES    WAVE
                       AIR SEA DIR/SP/G            HT/PER
                 (UTC) (F)     (DEG/KT/KT) (MB)    (FT/S)
ISLE OF SHOALS   1700   43      60/ 13/ 14 1004.4F
$$

.............KEY..............
   WCI - WIND CHILL
   TC  - TEMPERATURE IN CELSIUS
   VSB - VISIBILITY IN MILES
   HX  - HEAT INDEX
   FAIR- INDICATES FEW OR NO CLOUDS BELOW 12,000 FT, WITH NO 
         SIGNIFICANT WEATHER AND/OR OBSTRUCTIONS TO VISIBILITY.